Regional Weather Roundup
Issued by NWS

Home | Current Version | Previous Version | Graphics & Text | Print | Product List | Glossary On
Versions: 1 2 3 4 5 6 7 8 9 10 11 12 13 14 15 16 17 18 19 20 21 22 23 24 25 26 27 28 29 30 31 32 33 34 35 36 37 38 39 40 41 42 43 44 45 46 47 48 49 50
000
ASUS45 KBOU 270207
RWRCO

WEATHER ROUNDUP FOR COLORADO
NATIONAL WEATHER SERVICE DENVER/BOULDER CO
800 PM MDT SUN APR 26 2015

NOTE: "FAIR" INDICATES FEW OR NO CLOUDS BELOW 12000 FEET WITH NO
SIGNIFICANT WEATHER AND/OR OBSTRUCTIONS TO VISIBILITY.

COZ001>005-013-030-031-270300-
...NORTHWEST COLORADO...

CITY           SKY/WX    TMP DP  RH WIND       PRES   REMARKS
CRAIG          CLOUDY    44  38  79 N16G25    29.92R
HAYDEN         CLOUDY    43  37  81 N5        29.92R
MEEKER         LGT RAIN  44  37  76 N6        29.94R
MOUNT WERNER   NOT AVBL
STEAMBOAT SPGS CLOUDY    42  37  81 CALM      29.91S
WALDEN         CLOUDY    41  28  60 E8        29.94R
$$

COZ006>008-011-270300-
...WEST CENTRAL VALLEYS...

CITY           SKY/WX    TMP DP  RH WIND       PRES   REMARKS
GRAND JUNCTION CLOUDY    49  41  74 NW5       29.86R
MONTROSE       CLOUDY    47  39  74 SE7       29.89R
EAGLE          PTCLDY    50  39  66 S3        29.88R
RIFLE          CLOUDY    46  40  79 W8        29.88R
DELTA          NOT AVBL
NUCLA          CLOUDY    46  43  87 E7        29.89R
$$

COZ017>023-064>068-270300-
...SOUTHWEST COLORADO...

CITY           SKY/WX    TMP DP  RH WIND       PRES   REMARKS
DURANGO        CLOUDY    42  39  89 CALM      29.81R
CORTEZ         CLOUDY    48  39  71 N9        29.82R
PAGOSA SPRINGS LGT RAIN  40  39  95 NW3       29.85R
TELLURIDE      LGT SNOW  35  34  99 CALM      29.93R
WOLF CREEK PAS NOT AVBL
$$

COZ009-010-012-014-032>034-037-058>063-270300-
...CENTRAL COLORADO...

CITY           SKY/WX    TMP DP  RH WIND       PRES   REMARKS
ASPEN          CLOUDY    41  38  89 N6        29.90R
BUENA VISTA    DRIZZLE   38  33  83 CALM      29.97R
COPPER MTN     CLOUDY    30  27  86 MISG      30.01R
BERTHOUD PASS  HVY SNOW  19  12  73 MISG      30.05R VSB<1/4
COTTONWOOD PAS SNOW      34  32  93 SE8       30.00R VSB 1/4 WCI  27
GUNNISON       CLOUDY    41  34  75 N9        29.91R
KREMMLING      MOCLDY    45  36  70 NE7       29.92R
LEADVILLE      LGT SNOW  31  31 100 S5        29.97R FOG     WCI  26
MONARCH PASS   CLOUDY    25  23  93 MISG      30.04S
SALIDA         CLOUDY    35  34  96 CALM      30.04R
SUNLIGHT       LGT SNOW  32  32 100 N3        30.02R VSB 3/4
WILKERSON PASS LGT SNOW N/A N/A N/A MISG      30.05R VSB 1
$$

COZ069>075-270300-
...SAN LUIS VALLEY/SANGRE DE CRISTO MOUNTAINS...

CITY           SKY/WX    TMP DP  RH WIND       PRES   REMARKS
ALAMOSA        CLOUDY    36  34  92 NE5       29.89R
LA VETA PASS     N/A     27  27 100 MISG      29.94R VSB 1
SAGUACHE       LGT SNOW  32  32 100 CALM      29.93R
$$

COZ035-036-038>040-270300-
...NORTHERN COLORADO FRONT RANGE...

CITY           SKY/WX    TMP DP  RH WIND       PRES   REMARKS
DENVER INTL AP LGT RAIN  42  42 100 NE12      30.00R
DMNS CITY PARK   N/A     42  41  95 E9        30.01R
AURORA         CLOUDY    41  41 100 E13       30.01R FOG
FRONT RANGE AP NOT AVBL
ERIE MUNI ARPT CLOUDY    43  42  97 E5        30.02R FOG
BOULDER MUN AP HVY RAIN  41  41 100 NE5       30.02R
CENTENNIAL     DRIZZLE   41  41 100 NE7       30.00R FOG
BROOMFIELD     DRIZZLE   41  41 100 N9        30.01R
FORT COLLINS   CLOUDY    43  39  87 E8        30.04R
LONGMONT       LGT RAIN  45  43  93 E6        30.05R
$$

COZ041-046-047-076>085-087-088-270300-
...PIKES PEAK/PALMER DIVIDE AND SOUTHERN FOOTHILLS...

CITY           SKY/WX    TMP DP  RH WIND       PRES   REMARKS
COLO. SPRINGS  LGT RAIN  40  40 100 SE12      30.00R FOG
A. F. ACADEMY  MIX PCPN  36  36  99 S2        30.00R
ELLICOTT       CLOUDY   N/A N/A N/A VRB3      29.98R
FALCON         LGT RAIN  38  38 100 E10       30.00R
FORT CARSON    LGT RAIN  40  40 100 W7        29.98R
LIMON          CLOUDY    40  39  97 E12       30.00R
MONUMENT HILL  RAIN      36  36 100 E13       29.99R VSB 3/4
TRINIDAD       CLOUDY    43  42  97 NE13      29.91R FOG
$$

COZ042>045-048>051-090-091-270300-
...NORTHEAST COLORADO...

CITY           SKY/WX    TMP DP  RH WIND       PRES   REMARKS
GREELEY ARPT   CLOUDY    43  37  81 E8        30.04R
AKRON          RAIN      40  40 100 E14       30.01R VSB 1
BURLINGTON     LGT RAIN  44  42  93 E15       30.01R FOG
WRAY           CLOUDY   N/A N/A N/A E9        30.04R HAZE
STERLING       LGT RAIN  43  41  93 E7        30.03R
HOLYOKE        MOCLDY    46  43  87 E8        30.05R FOG
FORT MORGAN    RAIN      41  40  95 E9        30.04R
$$

COZ086-089-092>099-270300-
...SOUTHEAST COLORADO...

CITY           SKY/WX    TMP DP  RH WIND       PRES   REMARKS
PUEBLO         LGT RAIN  44  43  96 E15       29.95R
LA JUNTA       CLOUDY    46  43  89 E15       29.95R
LAMAR          CLOUDY    46  45  96 E17G24    29.94R
SPRINGFIELD      N/A     44  44 100 NE16G24   29.92R
$$


USA.gov is the U.S. government's official web portal to all federal, state and local government web resources and services.